Change the Weather History Date:

Saturday, February 23, 2013

  Actual Average (KGUS) Record (KGUS)
Temperature  
Mean Temperature 26 °F -  
Max Temperature 30 °F 38 °F 50 °F (1998)
Min Temperature 23 °F 24 °F 0 °F (2015)
Degree Days  
Heating Degree Days 38    
Moisture  
Dew Point 22 °F    
Average Humidity 78    
Maximum Humidity 93    
Minimum Humidity 69    
Precipitation  
Precipitation 0.00 in - - ()
Sea Level Pressure  
Sea Level Pressure 29.95 in    
Wind  
Wind Speed 12 mph (West)    
Max Wind Speed 16 mph    
Max Gust Speed 18 mph    
Visibility 10 miles    
Events      
Averages and records for this station are not official NWS values.
T = Trace of Precipitation, MM = Missing Value Source: NWS Daily Summary

Daily Weather History Graph

Daily Weather History Graph

Search for Another Location

Airport or City:

Trip Planner

Search our weather history database for the weather conditions in past years. The results will help you decide how hot, cold, wet, or windy it might be!

Date:

Astronomy

Feb. 23, 2013 Rise Set
Actual Time 6:26 AM CST 5:29 PM CST
Civil Twilight 5:58 AM CST 5:56 PM CST
Nautical Twilight 5:27 AM CST 6:28 PM CST
Astronomical Twilight 4:55 AM CST 7:00 PM CST
Moon 3:38 PM CST (2/23) 4:49 AM CST (2/23)
Length of Visible Light 11h 57m
Length of Day
11h 02m
Waxing Gibbous, 95% of the Moon is Illuminated
Feb 23
Waxing Gibbous
Feb 25
Full
Mar 4
Last Quarter
Mar 11
New
Mar 19
First Quarter

Hourly Weather History & Observations

Time (CST) Temp. Windchill Dew Point Humidity Pressure Visibility Wind Dir Wind Speed Gust Speed Precip Events Conditions
12:15 AM 28.4 °F 17.5 °F 24.8 °F 86% 29.96 in 10.0 mi West 13.8 mph - N/A   Overcast
12:35 AM 28.4 °F 19.7 °F 24.8 °F 86% 29.96 in 10.0 mi West 9.2 mph - N/A   Overcast
12:55 AM 28.4 °F 18.0 °F 24.8 °F 86% 29.96 in 10.0 mi WSW 12.7 mph - N/A   Overcast
1:15 AM 28.4 °F 17.5 °F 21.2 °F 74% 29.96 in 10.0 mi West 13.8 mph - N/A   Overcast
1:35 AM 28.4 °F 18.5 °F 21.2 °F 74% 29.96 in 10.0 mi West 11.5 mph - N/A   Overcast
1:55 AM 28.4 °F 18.5 °F 23.0 °F 80% 29.96 in 10.0 mi WSW 11.5 mph - N/A   Overcast
2:15 AM 28.4 °F 18.5 °F 23.0 °F 80% 29.95 in 10.0 mi West 11.5 mph - N/A   Overcast
2:35 AM 28.4 °F 18.0 °F 23.0 °F 80% 29.95 in 10.0 mi West 12.7 mph - N/A   Overcast
2:55 AM 28.4 °F 19.7 °F 23.0 °F 80% 29.95 in 10.0 mi West 9.2 mph - N/A   Overcast
3:15 AM 26.6 °F 16.2 °F 23.0 °F 86% 29.94 in 10.0 mi West 11.5 mph - N/A   Overcast
3:35 AM 26.6 °F 15.7 °F 21.2 °F 80% 29.94 in 10.0 mi West 12.7 mph - N/A   Overcast
3:55 AM 26.6 °F 16.8 °F 21.2 °F 80% 29.95 in 10.0 mi WSW 10.4 mph - N/A   Overcast
4:15 AM 26.6 °F 16.8 °F 21.2 °F 80% 29.96 in 10.0 mi WSW 10.4 mph - N/A   Scattered Clouds
4:35 AM 24.8 °F 15.3 °F 21.2 °F 86% 29.96 in 10.0 mi WSW 9.2 mph - N/A   Clear
4:55 AM 24.8 °F 15.3 °F 21.2 °F 86% 29.96 in 10.0 mi WSW 9.2 mph - N/A   Clear
5:15 AM 24.8 °F 16.1 °F 21.2 °F 86% 29.96 in 10.0 mi WSW 8.1 mph - N/A   Clear
5:35 AM 24.8 °F 16.1 °F 19.4 °F 80% 29.96 in 10.0 mi WSW 8.1 mph - N/A   Clear
6:15 AM 23.0 °F 14.7 °F 21.2 °F 93% 29.97 in 8.0 mi WSW 6.9 mph - N/A   Clear
6:35 AM 23.0 °F 13.9 °F 19.4 °F 86% 29.97 in 5.0 mi WSW 8.1 mph - N/A   Clear
6:55 AM 24.8 °F 16.1 °F 21.2 °F 86% 29.97 in 5.0 mi WSW 8.1 mph - N/A   Scattered Clouds
7:15 AM 24.8 °F 15.3 °F 23.0 °F 93% 29.97 in 6.0 mi WSW 9.2 mph - N/A   Overcast
7:35 AM 26.6 °F 17.5 °F 21.2 °F 80% 29.97 in 6.0 mi WSW 9.2 mph - N/A   Overcast
7:55 AM 26.6 °F 17.5 °F 21.2 °F 80% 29.97 in 7.0 mi WSW 9.2 mph - N/A   Overcast
8:15 AM 28.4 °F 19.7 °F 21.2 °F 74% 29.97 in 8.0 mi WSW 9.2 mph - N/A   Overcast
8:35 AM 28.4 °F 20.4 °F 23.0 °F 80% 29.97 in 8.0 mi WSW 8.1 mph - N/A   Partly Cloudy
8:55 AM 28.4 °F 19.7 °F 24.8 °F 86% 29.96 in 10.0 mi WSW 9.2 mph - N/A   Scattered Clouds
9:15 AM 28.4 °F 18.5 °F 23.0 °F 80% 29.96 in 10.0 mi West 11.5 mph - N/A   Mostly Cloudy
9:35 AM 28.4 °F 19.1 °F 21.2 °F 74% 29.96 in 10.0 mi West 10.4 mph - N/A   Mostly Cloudy
9:55 AM 28.4 °F 17.5 °F 21.2 °F 74% 29.97 in 10.0 mi West 13.8 mph - N/A   Overcast
10:15 AM 28.4 °F 17.5 °F 19.4 °F 69% 29.96 in 10.0 mi West 13.8 mph - N/A   Scattered Clouds
10:35 AM 28.4 °F 17.0 °F 19.4 °F 69% 29.96 in 10.0 mi WSW 15.0 mph - N/A   Mostly Cloudy
10:55 AM 28.4 °F 17.5 °F 21.2 °F 74% 29.96 in 10.0 mi West 13.8 mph - N/A   Overcast
11:15 AM 28.4 °F 17.5 °F 21.2 °F 74% 29.96 in 10.0 mi West 13.8 mph - N/A   Overcast
11:35 AM 28.4 °F 18.0 °F 23.0 °F 80% 29.96 in 10.0 mi West 12.7 mph - N/A   Overcast
11:55 AM 28.4 °F 18.0 °F 24.8 °F 86% 29.96 in 10.0 mi West 12.7 mph - N/A   Overcast
12:15 PM 28.4 °F 19.1 °F 23.0 °F 80% 29.95 in 10.0 mi West 10.4 mph - N/A   Overcast
12:35 PM 28.4 °F 18.5 °F 21.2 °F 74% 29.94 in 10.0 mi West 11.5 mph - N/A   Overcast
12:55 PM 30.2 °F 20.8 °F 21.2 °F 69% 29.94 in 10.0 mi West 11.5 mph - N/A   Overcast
1:15 PM 30.2 °F 21.9 °F 23.0 °F 75% 29.93 in 10.0 mi West 9.2 mph - N/A   Overcast
1:35 PM 30.2 °F 21.3 °F 21.2 °F 69% 29.92 in 10.0 mi West 10.4 mph - N/A   Overcast
1:55 PM 30.2 °F 19.8 °F 21.2 °F 69% 29.93 in 10.0 mi West 13.8 mph - N/A   Overcast
2:15 PM 30.2 °F 19.8 °F 23.0 °F 75% 29.92 in 10.0 mi West 13.8 mph - N/A   Overcast
2:35 PM 30.2 °F 19.8 °F 23.0 °F 75% 29.93 in 10.0 mi West 13.8 mph - N/A   Overcast
2:55 PM 30.2 °F 20.2 °F 24.8 °F 80% 29.93 in 10.0 mi West 12.7 mph - N/A   Overcast
3:15 PM 30.2 °F 20.8 °F 21.2 °F 69% 29.93 in 10.0 mi West 11.5 mph - N/A   Overcast
3:35 PM 30.2 °F 19.8 °F 21.2 °F 69% 29.93 in 10.0 mi West 13.8 mph 18.4 mph N/A   Overcast
3:55 PM 30.2 °F 20.8 °F 21.2 °F 69% 29.93 in 10.0 mi West 11.5 mph - N/A   Overcast
4:15 PM 30.2 °F 19.8 °F 21.2 °F 69% 29.93 in 10.0 mi WNW 13.8 mph - N/A   Overcast
4:35 PM 30.2 °F 18.9 °F 23.0 °F 75% 29.93 in 10.0 mi West 16.1 mph - N/A   Overcast
4:55 PM 28.4 °F 18.0 °F 23.0 °F 80% 29.93 in 10.0 mi West 12.7 mph - N/A   Overcast
5:15 PM 28.4 °F 19.1 °F 21.2 °F 74% 29.94 in 10.0 mi WNW 10.4 mph - N/A   Overcast
5:35 PM 28.4 °F 19.1 °F 23.0 °F 80% 29.94 in 10.0 mi WNW 10.4 mph - N/A   Overcast
5:55 PM 28.4 °F 19.1 °F 21.2 °F 74% 29.95 in 10.0 mi WNW 10.4 mph - N/A   Overcast
6:15 PM 28.4 °F 17.5 °F 21.2 °F 74% 29.95 in 10.0 mi WNW 13.8 mph - N/A   Overcast
6:55 PM 28.4 °F 17.5 °F 21.2 °F 74% 29.96 in 10.0 mi WNW 13.8 mph - N/A   Overcast
7:15 PM 26.6 °F 14.3 °F 19.4 °F 74% 29.96 in 10.0 mi WNW 16.1 mph - N/A   Overcast
7:35 PM 26.6 °F 15.7 °F 21.2 °F 80% 29.96 in 10.0 mi WNW 12.7 mph - N/A   Overcast
7:55 PM 26.6 °F 15.7 °F 21.2 °F 80% 29.96 in 10.0 mi West 12.7 mph - N/A   Overcast
8:15 PM 26.6 °F 15.2 °F 21.2 °F 80% 29.96 in 10.0 mi West 13.8 mph - N/A   Overcast
8:35 PM 26.6 °F 15.2 °F 21.2 °F 80% 29.96 in 10.0 mi WNW 13.8 mph - N/A   Overcast
8:55 PM 26.6 °F 16.2 °F 21.2 °F 80% 29.96 in 10.0 mi WNW 11.5 mph - N/A   Overcast
9:15 PM 26.6 °F 16.8 °F 21.2 °F 80% 29.96 in 10.0 mi NW 10.4 mph - N/A   Overcast
9:35 PM 26.6 °F 16.2 °F 21.2 °F 80% 29.96 in 10.0 mi WNW 11.5 mph - N/A   Overcast
9:55 PM 26.6 °F 16.8 °F 21.2 °F 80% 29.96 in 10.0 mi WNW 10.4 mph - N/A   Overcast
10:15 PM 26.6 °F 16.8 °F 19.4 °F 74% 29.96 in 10.0 mi NW 10.4 mph - N/A   Overcast
10:35 PM 26.6 °F 15.7 °F 21.2 °F 80% 29.96 in 10.0 mi WNW 12.7 mph - N/A   Overcast
10:55 PM 26.6 °F 15.2 °F 21.2 °F 80% 29.96 in 10.0 mi NW 13.8 mph - N/A   Overcast
11:15 PM 26.6 °F 16.8 °F 19.4 °F 74% 29.97 in 10.0 mi WNW 10.4 mph - N/A   Overcast
11:35 PM 26.6 °F 16.8 °F 19.4 °F 74% 29.97 in 10.0 mi WNW 10.4 mph - N/A   Overcast
11:55 PM 26.6 °F 16.2 °F 21.2 °F 80% 29.97 in 10.0 mi WNW 11.5 mph - N/A   Overcast